"Pseudo-MPEC" for 1979-104S = NORAD 27732 = deb Ariane L01

Created 2017 Sep 16 15:06:01 UT using Find_Orb

Astrometry:
1979-104S    tC2017 09 01.01961 20 40 40.40 +18 35 23.2          13.8 R      Y00
1979-104S    tC2017 09 01.02057 20 41 10.55 +18 34 12.6          13.9 R      Y00
1979-104S    tC2017 09 01.02159 20 41 42.58 +18 32 56.8          14.0 R      Y00
1979-104S    tC2017 09 01.02981 20 46 01.17 +18 22 40.7          13.6 R      Y00
1979-104S    tC2017 09 01.03085 20 46 33.97 +18 21 22.1          13.5 R      Y00
1979-104S    tC2017 09 01.03190 20 47 07.14 +18 20 01.8          13.5 R      Y00
1979-104S    tC2017 09 15.97455 20 24 22.46 +18 38 32.1          13.5 R      Y00
1979-104S    tC2017 09 15.97557 20 24 55.60 +18 36 48.7          13.6 R      Y00
1979-104S    tC2017 09 15.97655 20 25 27.56 +18 35 09.2          13.6 R      Y00
1979-104S    tC2017 09 15.98550 20 30 16.09 +18 20 04.7          13.5 R      Y00
1979-104S    tC2017 09 15.98662 20 30 52.11 +18 18 10.5          13.4 R      Y00
1979-104S    tC2017 09 15.98781 20 31 29.95 +18 16 10.6          13.4 R      Y00

Station data:
(Y00) SONEAR Observatory, Oliveira  (S20.715080 W44.784960)  Brazil.
   Observers C. Jacques, E. Pimentel, J. Barros. Measurer C. Jacques. 0.28-m
   f/2.2 astrograph + CCD.

Orbital elements:  1979-104S = NORAD 27732 = deb Ariane L01
   Perigee 2017 Sep 15.758193 +/- 7.15e-5 TT = 18:11:47 (JD 2458012.258193)
Epoch 2017 Sep 16.0 TT = JDT 2458012.5                        Gray
M 168.26622 +/- 0.050               (J2000 equator)
n 695.86972990 +/- 0.00137          Peri.  305.08533 +/- 0.007
a 27221.8859 +/- 0.0357             Node   186.02670 +/- 0.0037
e   0.7337331 +/- 0.000101          Incl.   15.58030 +/- 0.0014
P 744.95m/0.517d           H 30.1   G  0.15   U  8.3  
q 7248.28582 +/- 2.75    Q 47195.4859 +/- 2.82
From 12 observations 2017 Sept. 1-15; mean residual 2".284
Residuals in arcseconds: 
170901 Y00 3.93- .390+    170901 Y00 3.07+ .229-    170915 Y00 2.48- .375+    
170901 Y00 3.32- .679+    170901 Y00 4.31+ .776-    170915 Y00 .544+ .064+    
170901 Y00 2.81- .374+    170915 Y00 1.94- .808+    170915 Y00 4.35+ 1.10-    
170901 Y00 2.30+ .403-    170915 Y00 3.58- .692+    170915 Y00 3.26+ .911-    

Ephemerides (geocentric):
Date (UTC) HH   RA              Dec         delta   r     elong  mag  '/hr    PA   " sig PA
---- -- -- --  ------------   ------------  ------ ------ -----  --- ------ ------ ---- ---
2017 09 16 15  21 50 28.639   +09 47 29.29    42982 1.0055 150.8 13.7  474.1 102.2   638 102
2017 09 16 16  22 25 26.320   +07 49 00.44    38001 1.0055 159.4 13.2  606.6 103.5   803 103
2017 09 16 17  23 13 46.835   +04 46 03.91    30590 1.0054 170.7 Sha   936.0 104.9  1218 105
2017 09 16 18  00 44 08.065   -01 26 44.45    19852 1.0054 163.3 Sha    2222 105.5  2846 105
2017 09 16 19  08 38 23.718   -13 02 49.40     7248 1.0052  47.0 14??  16672  81.4  363'  81
2017 09 16 20  16 39 17.903   +14 04 54.60    19602 1.0052  75.3 14.6   2280  83.3  3144  83
2017 09 16 21  18 17 45.587   +15 34 41.47    30419 1.0052  99.0 14.5  946.7  89.7  1338  90
2017 09 16 22  19 09 37.022   +15 16 26.74    37883 1.0053 111.4 14.6  610.4  93.1   880  93
2017 09 16 23  19 46 22.293   +14 36 14.12    42906 1.0053 120.2 14.6  475.9  95.5   695  96
2017 09 17 00  20 16 32.401   +13 46 47.11    45926 1.0053 127.5 14.5  415.3  97.3   610  97
2017 09 17 01  20 43 48.168   +12 49 50.19    47156 1.0054 134.1 14.4  393.9  98.9   578  99
2017 09 17 02  21 10 24.853   +11 43 35.28    46674 1.0054 140.6 14.2  402.1 100.3   586 100
2017 09 17 03  21 38 23.122   +10 23 22.25    44450 1.0054 147.5 13.9  443.4 101.7   639 101
2017 09 17 04  22 10 23.771   +08 39 33.03    40336 1.0054 155.4 13.4  538.4 103.0   764 103
2017 09 17 05  22 51 38.947   +06 09 48.06    34011 1.0053 165.5 12.7  757.2 104.3  1058 104
2017 09 17 06  23 57 23.268   +01 45 49.86    24812 1.0053 173.9 Sha    1423 105.5  1956 105
2017 09 17 07  03 07 25.069   -10 24 30.17    11597 1.0051 127.7 11.5   6513 101.7  8781 102
2017 09 17 08  15 09 41.727   +10 32 25.64    13800 1.0050  52.8 15??   4600  78.4  6725  79
2017 09 17 09  17 47 01.895   +15 24 35.06    26402 1.0051  91.2 14.5   1257  87.6  1870  88
2017 09 17 10  18 51 16.942   +15 27 56.82    35110 1.0051 106.6 14.6  710.7  91.9  1080  92
2017 09 17 11  19 32 44.656   +14 53 09.96    41076 1.0052 116.6 14.6  519.2  94.7   801  95
2017 09 17 12  20 05 03.048   +14 06 24.70    44894 1.0052 124.3 14.5  434.7  96.7   676  97
2017 09 17 13  20 33 11.865   +13 12 08.00    46853 1.0052 131.2 14.4  399.1  98.4   622  98
2017 09 17 14  20 59 50.063   +12 09 41.06    47081 1.0052 137.7 14.3  395.2  99.8   613 100
2017 09 17 15  21 26 58.170   +10 55 39.21    45592 1.0052 144.3 14.0  421.4 101.2   647 101
2017 09 17 16  21 56 52.242   +09 22 55.38    42292 1.0052 151.7 13.6  489.8 102.5   743 102
2017 09 17 17  22 33 18.818   +07 16 06.53    36942 1.0052 160.8 13.1  641.9 103.8   958 104
2017 09 17 18  23 25 28.396   +03 54 17.69    29055 1.0052 172.9 Sha    1038 105.1  1525 105
2017 09 17 19  01 12 09.182   -03 27 34.81    17623 1.0051 157.2 11.6   2821 105.2  4076 105
2017 09 17 20  11 31 18.509   -03 29 21.11     8077 1.0049   6.1 32??  13429  74.8  344'  75